SPACEBEENZ-17 (52397 NORAD) Tracking and Keplerian Element Data

This shows tracking and keplerian element data for the satellite.

Feedback or suggestion? Click here.




ElementValue
Catalog52397
NameSPACEBEENZ-17
Epoch Orbit812
Epoch Day166.95298577
Epoch Year2022
RAAN251.8966
Inclination97.4504
Eccentricity0.0010031
Argument of Perigee170.2214
Mean Anonmoly189.9215
Mean Motion15.13709778
Decay Rate0.00014021
L11 52397U 22047D 22166.95298577 .00014021 00000+0 78043-3 0 9992
L22 52397 97.4504 251.8966 0010031 170.2214 189.9215 15.13709778 8120

Live tracking and technical data element details for SPACEBEENZ-17 (NORAD 52397). SPACEBEENZ-17 can be tracked NOW for your location showing map with azimuth and elevation plus other details from your city location.

Track the satellite on the map from your city or location and see movement details for azimuth, elevation, latitude, longitude, range, height, and movement on the map or in text.







IsCatalogInMostPopularTable: catalog: 52397, numindb: 1
Update: records affected: 1



GetName: 52397 SPACEBEENZ-17

Hit Count: updated at: Mon, 27 Jun 2022 04:55:09 GMT